GW5653 Weather Reports


Display with metric or nautical units.
time (UTC)temp
F
wind
direction
speed
MPH
gust
MPH
rain 1hr
in
rain 24hr
in
rain mn
in
humidity
%
barometer
mb
20260509212816 73 45 3.0 4.0 0.00 0.00 0.00 49
20260509212313 74 168 1.0 1.0 0.00 0.00 0.00 46
20260509211809 74 151 0.0 1.0 0.00 0.00 0.00 52
20260509211305 75 153 0.0 1.0 0.00 0.00 0.00 44
20260509210801 76 154 0.0 2.0 0.00 0.00 0.00 44
20260509210259 76 226 2.0 3.0 0.00 0.00 0.00 42
20260509205758 77 169 1.0 2.0 0.00 0.00 0.00 42
20260509205253 78 153 0.0 1.0 0.00 0.00 0.00 43
20260509204750 77 166 1.0 1.0 0.00 0.00 0.00 42
20260509204246 78 157 1.0 2.0 0.00 0.00 0.00 44
20260509203742 78 163 0.0 1.0 0.00 0.00 0.00 40
20260509203241 77 178 0.0 1.0 0.00 0.00 0.00 41
20260509202736 76 171 1.0 1.0 0.00 0.00 0.00 43
20260509202232 75 186 1.0 2.0 0.00 0.00 0.00 43
20260509201726 74 178 1.0 3.0 0.00 0.00 0.00 42
20260509201223 75 139 2.0 3.0 0.00 0.00 0.00 42
20260509200720 75 220 5.0 8.0 0.00 0.00 0.00 41
20260509200215 78 195 4.0 8.0 0.00 0.00 0.00 41
20260509195712 80 131 0.0 2.0 0.00 0.00 0.00 38
20260509195207 81 146 1.0 6.0 0.00 0.00 0.00 38
20260509194706 79 154 1.0 2.0 0.00 0.00 0.00 41
20260509194203 78 136 0.0 2.0 0.00 0.00 0.00 42
20260509193700 78 198 1.0 3.0 0.00 0.00 0.00 42
20260509193155 78 165 2.0 3.0 0.00 0.00 0.00 42
20260509192652 78 202 1.0 2.0 0.00 0.00 0.00 42
20260509192147 77 95 3.0 4.0 0.00 0.00 0.00 42
20260509191647 76 132 1.0 6.0 0.00 0.00 0.00 43
20260509191144 75 95 4.0 9.0 0.00 0.00 0.00 44
20260509190640 77 231 3.0 4.0 0.00 0.00 0.00 42
20260509190138 75 167 2.0 7.0 0.00 0.00 0.00 44
20260509185635 76 201 4.0 7.0 0.00 0.00 0.00 44
20260509185131 77 112 1.0 7.0 0.00 0.00 0.00 43
20260509184629 77 62 2.0 3.0 0.00 0.00 0.00 43
20260509184126 77 247 4.0 6.0 0.00 0.00 0.00 41
20260509183622 73 143 1.0 2.0 0.00 0.00 0.00 46
20260509183117 71 235 4.0 7.0 0.00 0.00 0.00 47
20260509182613 75 187 2.0 3.0 0.00 0.00 0.00 48
20260509182110 72 224 0.0 3.0 0.00 0.00 0.00 50
20260509181609 70 88 2.0 4.0 0.00 0.00 0.00 53
20260509181106 70 63 2.0 4.0 0.00 0.00 0.00 53
20260509180602 70 88 2.0 6.0 0.00 0.00 0.00 53
20260509180059 70 114 3.0 6.0 0.00 0.00 0.00 53
20260509175554 70 150 1.0 3.0 0.00 0.00 0.00 54
20260509175052 69 155 0.0 4.0 0.00 0.00 0.00 54
20260509174548 69 123 2.0 6.0 0.00 0.00 0.00 55
20260509174044 70 39 1.0 4.0 0.00 0.00 0.00 53
20260509173544 70 63 1.0 6.0 0.00 0.00 0.00 52
20260509173041 71 74 2.0 6.0 0.00 0.00 0.00 49
20260509172538 71 113 1.0 2.0 0.00 0.00 0.00 49
20260509172033 70 140 0.0 1.0 0.00 0.00 0.00 49
20260509171529 70 109 2.0 3.0 0.00 0.00 0.00 53
20260509171026 69 153 1.0 4.0 0.00 0.00 0.00 51
20260509170522 69 94 3.0 4.0 0.00 0.00 0.00 54
20260509170018 68 96 0.0 2.0 0.00 0.00 0.00 55
20260509165516 69 83 3.0 6.0 0.00 0.00 0.00 55
20260509165012 68 82 6.0 8.0 0.00 0.00 0.00 55
20260509164509 70 90 8.0 9.0 0.00 0.00 0.00 53
20260509164004 74 169 3.0 3.0 0.00 0.00 0.00 47
20260509163502 73 150 0.0 2.0 0.00 0.00 0.00 47
20260509163001 74 111 0.0 2.0 0.00 0.00 0.00 44
20260509162500 73 153 0.0 2.0 0.00 0.00 0.00 45
20260509161955 73 139 0.0 3.0 0.00 0.00 0.00 47
20260509161452 73 144 1.0 4.0 0.00 0.00 0.00 45
20260509160947 73 159 1.0 3.0 0.00 0.00 0.00 47
20260509160443 73 133 5.0 7.0 0.00 0.00 0.00 45
20260509155939 72 157 3.0 6.0 0.00 0.00 0.00 48
20260509155436 71 100 1.0 3.0 0.00 0.00 0.00 48
20260509154932 70 180 2.0 10.0 0.00 0.00 0.00 52
20260509154428 70 74 6.0 8.0 0.00 0.00 0.00 51
20260509153926 71 86 4.0 8.0 0.00 0.00 0.00 52
20260509153423 74 108 4.0 6.0 0.00 0.00 0.00 48
20260509152920 75 215 2.0 4.0 0.00 0.00 0.00 44
20260509152415 74 208 1.0 2.0 0.00 0.00 0.00 48
20260509151912 72 141 1.0 2.0 0.00 0.00 0.00 48
20260509151408 70 235 2.0 2.0 0.00 0.00 0.00 50
20260509150907 69 256 3.0 8.0 0.00 0.00 0.00 53
20260509150404 72 191 5.0 9.0 0.00 0.00 0.00 50
20260509145902 74 145 3.0 4.0 0.00 0.00 0.00 48
20260509145401 73 105 1.0 2.0 0.00 0.00 0.00 50
20260509144858 71 180 2.0 8.0 0.00 0.00 0.00 49
20260509144355 73 123 1.0 2.0 0.00 0.00 0.00 49
20260509143852 71 154 0.0 3.0 0.00 0.00 0.00 52
20260509143349 70 176 0.0 3.0 0.00 0.00 0.00 51
20260509142845 70 220 3.0 6.0 0.00 0.00 0.00 53
20260509142342 70 219 2.0 7.0 0.00 0.00 0.00 54
20260509141838 70 157 1.0 3.0 0.00 0.00 0.00 52
20260509141335 67 121 0.0 3.0 0.00 0.00 0.00 54
20260509140831 68 237 2.0 3.0 0.00 0.00 0.00 53
20260509140328 68 117 0.0 2.0 0.00 0.00 0.00 52
20260509135827 68 100 0.0 2.0 0.00 0.00 0.00 53
20260509135324 67 155 0.0 1.0 0.00 0.00 0.00 52
20260509134821 66 130 2.0 2.0 0.00 0.00 0.00 54
20260509134318 66 351 3.0 6.0 0.00 0.00 0.00 55
20260509133815 65 141 0.0 0.0 0.00 0.00 0.00 54
20260509133311 63 199 1.0 2.0 0.00 0.00 0.00 55
20260509132810 63 255 2.0 6.0 0.00 0.00 0.00 59
20260509132309 62 235 2.0 2.0 0.00 0.00 0.00 58
20260509131805 62 208 0.0 1.0 0.00 0.00 0.00 63
20260509131302 63 175 1.0 2.0 0.00 0.00 0.00 63
20260509130758 64 122 0.0 1.0 0.00 0.00 0.00 58
20260509130254 62 149 0.0 1.0 0.00 0.00 0.00 58
20260509125750 61 77 0.0 2.0 0.00 0.00 0.00 62
20260509125247 60 147 0.0 2.0 0.00 0.00 0.00 61
20260509124744 60 132 0.0 0.0 0.00 0.00 0.00 62
20260509124240 59 106 1.0 2.0 0.00 0.00 0.00 63
20260509123739 59 144 0.0 3.0 0.00 0.00 0.00 65
20260509123235 59 90 2.0 3.0 0.00 0.00 0.00 65
20260509122731 59 157 0.0 3.0 0.00 0.00 0.00 66
20260509122228 58 144 0.0 1.0 0.00 0.00 0.00 66
20260509121725 58 140 0.0 1.0 0.00 0.00 0.00 71
20260509121222 57 132 1.0 1.0 0.00 0.00 0.00 73
20260509120721 56 127 1.0 2.0 0.00 0.00 0.00 78
20260509120218 55 129 1.0 2.0 0.00 0.00 0.00 84
20260509115715 55 129 0.0 1.0 0.00 0.00 0.00 83
20260509115213 56 154 0.0 0.0 0.00 0.00 0.00 83
20260509114711 55 162 0.0 0.0 0.00 0.00 0.00 82
20260509114209 55 152 0.0 0.0 0.00 0.00 0.00 81
20260509113708 55 156 0.0 0.0 0.00 0.00 0.00 82
20260509113204 55 163 0.0 0.0 0.00 0.00 0.00 79
20260509112701 54 167 0.0 1.0 0.00 0.00 0.00 77
20260509112158 54 178 0.0 1.0 0.00 0.00 0.00 77
20260509111655 54 163 0.0 0.0 0.00 0.00 0.00 80
20260509111152 53 162 0.0 0.0 0.00 0.00 0.00 79
20260509110649 53 160 0.0 0.0 0.00 0.00 0.00 78
20260509110146 53 160 0.0 0.0 0.00 0.00 0.00 79
20260509105644 53 158 0.0 0.0 0.00 0.00 0.00 82
20260509105141 53 160 0.0 0.0 0.00 0.00 0.00 81
20260509104638 53 160 0.0 0.0 0.00 0.00 0.00 81
20260509104135 53 161 0.0 0.0 0.00 0.00 0.00 79
20260509103633 53 147 0.0 1.0 0.00 0.00 0.00 80
20260509103131 53 155 0.0 0.0 0.00 0.00 0.00 86
20260509102628 54 155 0.0 0.0 0.00 0.00 0.00 85
20260509102125 54 150 0.0 0.0 0.00 0.00 0.00 83
20260509101621 54 142 0.0 1.0 0.00 0.00 0.00 81
20260509101118 53 144 0.0 1.0 0.00 0.00 0.00 81
20260509100615 53 120 1.0 2.0 0.00 0.00 0.00 85
20260509100112 53 147 1.0 1.0 0.00 0.00 0.00 81
20260509095608 52 151 0.0 1.0 0.00 0.00 0.00 83
20260509095106 52 183 0.0 1.0 0.00 0.00 0.00 83
20260509094602 52 192 0.0 0.0 0.00 0.00 0.00 83
20260509094100 53 191 0.0 0.0 0.00 0.00 0.00 86
20260509093558 53 191 0.0 1.0 0.00 0.00 0.00 86
20260509093055 53 191 0.0 1.0 0.00 0.00 0.00 86
20260509092553 53 195 0.0 1.0 0.00 0.00 0.00 86
20260509092051 53 187 1.0 1.0 0.00 0.00 0.00 82
20260509091548 53 187 0.0 1.0 0.00 0.00 0.00 83
20260509091045 53 187 0.0 1.0 0.00 0.00 0.00 84
20260509090542 53 198 0.0 0.0 0.00 0.00 0.00 88
20260509090040 53 198 0.0 0.0 0.00 0.00 0.00 88
20260509085537 53 198 0.0 0.0 0.00 0.00 0.00 87
20260509085033 53 200 1.0 2.0 0.00 0.00 0.00 87
20260509084530 53 198 1.0 1.0 0.00 0.00 0.00 88
20260509084027 52 185 1.0 1.0 0.00 0.00 0.00 85
20260509083525 52 185 1.0 1.0 0.00 0.00 0.00 86
20260509083021 52 185 1.0 1.0 0.00 0.00 0.00 87
20260509082519 52 185 0.0 0.0 0.00 0.00 0.00 87
20260509082015 52 185 0.0 0.0 0.00 0.00 0.00 85
20260509081513 52 187 0.0 0.0 0.00 0.00 0.00 87
20260509081009 52 187 0.0 1.0 0.00 0.00 0.00 87
20260509080507 52 192 1.0 1.0 0.00 0.00 0.00 87
20260509080005 51 186 0.0 1.0 0.00 0.00 0.00 86
20260509075502 51 193 1.0 1.0 0.00 0.00 0.00 88
20260509074959 51 188 1.0 1.0 0.00 0.00 0.00 90
20260509074457 51 148 0.0 0.0 0.00 0.00 0.00 90
20260509073953 51 148 0.0 0.0 0.00 0.00 0.00 90
20260509073450 51 148 0.0 1.0 0.00 0.00 0.00 90
20260509072946 51 181 0.0 2.0 0.00 0.00 0.00 91
20260509072443 51 196 0.0 0.0 0.00 0.00 0.00 91
20260509071940 51 198 0.0 0.0 0.00 0.00 0.00 90
20260509071436 51 200 0.0 0.0 0.00 0.00 0.00 91
20260509070935 51 200 0.0 0.0 0.00 0.00 0.00 90
20260509070431 51 201 1.0 2.0 0.00 0.00 0.00 90
20260509065927 51 201 0.0 1.0 0.00 0.00 0.00 91
20260509065423 51 208 1.0 2.0 0.00 0.00 0.00 92
20260509064919 50 218 1.0 2.0 0.00 0.00 0.00 93
20260509064417 50 177 0.0 1.0 0.00 0.00 0.00 93
20260509063914 50 174 1.0 2.0 0.00 0.00 0.00 93
20260509063409 50 227 2.0 2.0 0.00 0.00 0.00 93
20260509062907 51 244 2.0 2.0 0.00 0.00 0.00 90
20260509062404 51 225 1.0 2.0 0.00 0.00 0.00 84
20260509061901 50 217 2.0 2.0 0.00 0.00 0.00 79
20260509061359 50 174 0.0 0.0 0.00 0.00 0.00 77
20260509060855 50 157 0.0 0.0 0.00 0.00 0.00 76
20260509060353 50 165 0.0 0.0 0.00 0.00 0.00 77
20260509055854 50 157 0.0 0.0 0.00 0.00 0.00 81
20260509055349 50 156 0.0 1.0 0.00 0.00 0.00 84
20260509054847 50 171 0.0 1.0 0.00 0.00 0.00 84
20260509054343 49 154 0.0 0.0 0.00 0.00 0.00 85
20260509053842 48 153 0.0 0.0 0.00 0.00 0.00 86
20260509053338 48 165 0.0 0.0 0.00 0.00 0.00 87
20260509052837 48 153 0.0 0.0 0.00 0.00 0.00 89
20260509052334 48 160 0.0 0.0 0.00 0.00 0.00 89
20260509051832 49 161 0.0 0.0 0.00 0.00 0.00 90
20260509051330 49 174 0.0 0.0 0.00 0.00 0.00 89
20260509050826 49 176 0.0 1.0 0.00 0.00 0.00 90
20260509050323 49 178 0.0 1.0 0.00 0.00 0.00 92
20260509045820 48 182 0.0 0.0 0.00 0.00 0.00 92
20260509045316 48 155 0.0 0.0 0.00 0.00 0.00 92
20260509044814 48 157 0.0 1.0 0.00 0.00 0.00 92
20260509044311 48 137 0.0 1.0 0.00 0.00 0.00 94
20260509043808 47 148 0.0 0.0 0.00 0.00 0.00 94
20260509043303 47 153 0.0 0.0 0.00 0.00 0.00 95
20260509042800 46 149 0.0 0.0 0.00 0.00 0.00 96
20260509042256 46 160 0.0 0.0 0.00 0.00 0.00 97
20260509041753 47 160 0.0 0.0 0.00 0.00 0.00 97
20260509041250 47 161 0.0 0.0 0.00 0.00 0.00 97
20260509040749 47 161 0.0 0.0 0.00 0.00 0.00 97
20260509040245 47 161 0.0 0.0 0.00 0.00 0.00 97
20260509035742 47 156 0.0 0.0 0.00 0.00 0.00 97
20260509035239 47 156 0.0 0.0 0.00 0.00 0.00 96
20260509034736 47 156 0.0 0.0 0.00 0.00 0.00 96
20260509034233 48 155 0.0 0.0 0.00 0.00 0.00 96
20260509033730 47 159 0.0 0.0 0.00 0.00 0.00 94
20260509033227 48 159 0.0 0.0 0.00 0.00 0.00 94
20260509032724 48 159 0.0 0.0 0.00 0.00 0.00 93
20260509032221 48 159 0.0 0.0 0.00 0.00 0.00 93
20260509031719 48 167 0.0 0.0 0.00 0.00 0.00 92
20260509031216 48 167 0.0 0.0 0.00 0.00 0.00 91
20260509030714 48 168 0.0 0.0 0.00 0.00 0.00 90
20260509030211 48 169 0.0 0.0 0.00 0.00 0.00 89
20260509025707 49 166 0.0 0.0 0.00 0.00 0.00 87
20260509025203 49 162 0.0 0.0 0.00 0.00 0.00 86
20260509024659 50 156 0.0 0.0 0.00 0.00 0.00 85
20260509024155 50 144 0.0 0.0 0.00 0.00 0.00 85
20260509023653 50 144 0.0 1.0 0.00 0.00 0.00 85
20260509023150 50 155 0.0 0.0 0.00 0.00 0.00 84
20260509022646 49 156 0.0 0.0 0.00 0.00 0.00 86
20260509022144 50 167 0.0 0.0 0.00 0.00 0.00 91
20260509021640 51 169 0.0 0.0 0.00 0.00 0.00 91
20260509021137 51 169 0.0 0.0 0.00 0.00 0.00 90
20260509020636 51 169 0.0 0.0 0.00 0.00 0.00 90
20260509020132 51 169 0.0 0.0 0.00 0.00 0.00 85
20260509015631 51 169 0.0 0.0 0.00 0.00 0.00 83
20260509015128 51 160 0.0 0.0 0.00 0.00 0.00 86
20260509014625 52 161 0.0 0.0 0.00 0.00 0.00 87
20260509014121 52 172 0.0 0.0 0.00 0.00 0.00 84
20260509013619 53 172 0.0 0.0 0.00 0.00 0.00 84
20260509013114 53 172 0.0 0.0 0.00 0.00 0.00 83
20260509012611 54 172 0.0 0.0 0.00 0.00 0.00 82
20260509012107 55 173 0.0 0.0 0.00 0.00 0.00 79
20260509011606 55 174 0.0 0.0 0.00 0.00 0.00 77
20260509011102 55 164 0.0 0.0 0.00 0.00 0.00 68
20260509010600 57 164 0.0 0.0 0.00 0.00 0.00 67
20260509010057 58 160 0.0 0.0 0.00 0.00 0.00 68
20260509005554 59 164 0.0 0.0 0.00 0.00 0.00 60
20260509005050 60 168 1.0 2.0 0.00 0.00 0.00 56
20260509004547 61 180 0.0 3.0 0.00 0.00 0.00 53
20260509004043 61 192 2.0 2.0 0.00 0.00 0.00 53
20260509003542 61 221 1.0 2.0 0.00 0.00 0.00 52
20260509003039 61 194 1.0 1.0 0.00 0.00 0.00 55
20260509002536 61 196 1.0 2.0 0.00 0.00 0.00 53
20260509002034 62 190 1.0 2.0 0.00 0.00 0.00 53
20260509001531 62 174 0.0 2.0 0.00 0.00 0.00 50
20260509001026 63 152 0.0 2.0 0.00 0.00 0.00 49
20260509000525 63 177 0.0 1.0 0.00 0.00 0.00 51
20260509000021 64 185 0.0 1.0 0.00 0.00 0.00 49
20260508235519 64 223 1.0 2.0 0.00 0.00 0.00 46
20260508235015 64 203 1.0 2.0 0.00 0.00 0.00 47
20260508234512 65 140 0.0 0.0 0.00 0.00 0.00 50
20260508234009 65 189 0.0 1.0 0.00 0.00 0.00 50
20260508233509 65 206 1.0 2.0 0.00 0.00 0.00 51
20260508233005 66 224 2.0 3.0 0.00 0.00 0.00 56
20260508232502 66 230 2.0 3.0 0.00 0.00 0.00 52
20260508231959 68 240 2.0 3.0 0.00 0.00 0.00 49
20260508231457 68 173 0.0 1.0 0.00 0.00 0.00 48
20260508230954 69 166 0.0 3.0 0.00 0.00 0.00 39
20260508230450 71 176 1.0 1.0 0.00 0.00 0.00 38
20260508225947 71 203 1.0 2.0 0.00 0.00 0.00 35
20260508225444 72 227 2.0 3.0 0.00 0.00 0.00 36
20260508224941 71 208 0.0 1.0 0.00 0.00 0.00 35
20260508224439 71 160 0.0 3.0 0.00 0.00 0.00 34
20260508223936 72 145 0.0 2.0 0.00 0.00 0.00 34
20260508223434 73 207 2.0 4.0 0.00 0.00 0.00 33
20260508222930 74 136 0.0 1.0 0.00 0.00 0.00 33
20260508222428 74 129 1.0 2.0 0.00 0.00 0.00 33
20260508221925 74 154 0.0 2.0 0.00 0.00 0.00 33
20260508221420 73 99 3.0 6.0 0.00 0.00 0.00 33
20260508220917 73 230 2.0 4.0 0.00 0.00 0.00 34
20260508220413 72 140 2.0 3.0 0.00 0.00 0.00 35
20260508215909 74 99 1.0 3.0 0.00 0.00 0.00 32
20260508215407 75 165 2.0 3.0 0.00 0.00 0.00 32
20260508214903 76 120 2.0 7.0 0.00 0.00 0.00 32
20260508214401 75 151 2.0 2.0 0.00 0.00 0.00 31
20260508213857 75 176 1.0 7.0 0.00 0.00 0.00 31
20260508213354 76 213 0.0 2.0 0.00 0.00 0.00 30